Date String (YYYY-MM-DD hh:mm:ss) UTC,Instrument flags,Ambient pressure (hPa),Sample flow (lpm),Bypass flow (lpm),Sample temperature (°C),Ambient temperature (°C),ASC tube jacket temperature (°C),LED temperature (°C),Box temperature (°C),Sample RH (%),Span deviation,Mass concentration (μg/m³),Mass concentration (μg/m³),Mass concentration (μg/m³)
DateTimeUTC,F1_M11,P_M11,Q1_M11,Q2_M11,T1_M11,T2_M11,T3_M11,T4_M11,T5_M11,U1_M11,ZSPAN_M11,X0_M11,X2_M11,X1_M11
2022-10-26 23:00:00,,0818.4,4.99,0.00,27.9,26.7,00.0,36.6,29.8,12.2,0000.0,0007.47,0003.20,0002.43
2022-10-26 23:01:00,,0818.4,5.01,0.00,27.9,26.7,00.0,36.6,29.8,12.2,0000.0,0007.57,0003.22,0002.42
2022-10-26 23:02:00,,0818.4,5.00,0.00,27.9,26.7,00.0,36.6,29.9,12.3,0000.0,0007.72,0003.27,0002.43
2022-10-26 23:03:00,,0818.4,4.99,0.00,28.0,26.7,00.0,36.6,29.9,12.4,0000.0,0007.86,0003.33,0002.49
2022-10-26 23:04:00,,0818.4,4.99,0.00,28.0,26.7,00.0,36.7,29.9,12.6,0000.0,0008.30,0003.41,0002.60
2022-10-26 23:05:00,,0818.4,5.00,0.00,28.0,26.7,00.0,36.7,29.9,12.7,0000.0,0009.10,0003.54,0002.80
2022-10-26 23:06:00,,0818.4,5.01,0.00,28.0,26.7,00.0,36.7,29.9,12.6,0000.0,0009.42,0003.72,0003.01
2022-10-26 23:07:00,,0818.4,4.99,0.00,28.0,26.7,00.0,36.7,29.9,12.7,0000.0,0009.85,0003.91,0003.17
2022-10-26 23:08:00,,0818.4,4.99,0.00,28.0,26.7,00.0,36.7,29.9,12.7,0000.0,0010.88,0004.07,0003.28
2022-10-26 23:09:00,,0818.4,5.02,0.00,28.0,26.7,00.0,36.7,29.9,12.7,0000.0,0011.24,0004.17,0003.40
2022-10-26 23:10:00,,0818.4,4.99,0.00,28.0,26.7,00.0,36.7,29.9,12.6,0000.0,0010.73,0004.26,0003.52
2022-10-26 23:11:00,,0818.4,5.00,0.00,28.0,26.8,00.0,36.7,29.9,12.5,0000.0,0011.19,0004.35,0003.62
2022-10-26 23:12:00,,0818.4,4.99,0.00,28.0,26.8,00.0,36.7,30.0,12.3,0000.0,0011.60,0004.38,0003.67
2022-10-26 23:13:00,,0818.4,4.99,0.00,28.1,26.8,00.0,36.8,30.0,12.2,0000.0,0012.53,0004.37,0003.70
2022-10-26 23:14:00,,0818.4,5.01,0.00,28.1,26.8,00.0,36.8,30.0,12.1,0000.0,0014.15,0004.36,0003.69
2022-10-26 23:15:00,,0818.4,4.99,0.00,28.1,26.7,00.0,36.8,30.0,11.4,0000.0,0014.03,0004.32,0003.65
2022-10-26 23:16:00,,0818.4,5.01,0.00,28.1,26.7,00.0,36.8,30.0,11.9,0000.0,0013.04,0004.19,0003.54
2022-10-26 23:17:00,,0818.4,4.99,0.00,28.1,26.8,00.0,36.8,30.0,11.9,0000.0,0012.83,0004.07,0003.45
2022-10-26 23:18:00,,0818.4,5.00,0.00,28.1,26.8,00.0,36.8,30.0,11.3,0000.0,0012.64,0003.90,0003.30
2022-10-26 23:19:00,,0818.4,5.01,0.00,28.1,26.8,00.0,36.8,30.0,11.2,0000.0,0011.55,0003.68,0003.13
2022-10-26 23:20:00,,0818.4,5.00,0.00,28.1,26.7,00.0,36.8,30.0,11.2,0000.0,0010.83,0003.48,0002.86
2022-10-26 23:21:00,,0818.4,5.01,0.00,28.1,26.7,00.0,36.8,30.0,11.3,0000.0,0010.60,0003.29,0002.55
2022-10-26 23:22:00,,0818.4,4.98,0.00,28.1,26.8,00.0,36.8,30.0,11.7,0000.0,0009.92,0003.16,0002.33
2022-10-26 23:23:00,,0818.4,4.99,0.00,28.1,26.8,00.0,36.8,30.0,11.9,0000.0,0009.59,0003.10,0002.24
2022-10-26 23:24:00,,0818.4,5.01,0.00,28.1,26.7,00.0,36.8,30.0,12.1,0000.0,0009.09,0003.11,0002.24
2022-10-26 23:25:00,,0818.4,4.99,0.00,28.1,26.7,00.0,36.8,30.0,12.4,0000.0,0007.33,0003.11,0002.28
2022-10-26 23:26:00,,0818.4,5.01,0.00,28.1,26.7,00.0,36.9,30.0,12.7,0000.0,0008.20,0003.19,0002.40
2022-10-26 23:27:00,,0818.5,4.98,0.00,28.1,26.7,00.0,36.9,30.0,12.6,0000.0,0008.64,0003.33,0002.61
2022-10-26 23:28:00,,0818.5,5.02,0.00,28.1,26.6,00.0,36.9,30.0,12.6,0000.0,0008.99,0003.44,0002.82
2022-10-26 23:29:00,,0818.5,4.98,0.00,28.1,26.6,00.0,36.9,30.0,12.6,0000.0,0009.77,0003.63,0003.11
2022-10-26 23:30:00,,0818.5,5.02,0.00,28.1,26.5,00.0,36.9,30.0,12.6,0000.0,0011.18,0003.88,0003.32
2022-10-26 23:31:00,,0818.5,4.98,0.00,28.1,26.5,00.0,36.9,30.0,12.6,0000.0,0012.73,0004.13,0003.52
2022-10-26 23:32:00,,0818.4,5.02,0.00,28.1,26.4,00.0,36.9,29.9,12.8,0000.0,0013.52,0004.34,0003.70
2022-10-26 23:33:00,,0818.4,4.98,0.00,28.1,26.3,00.0,36.9,29.9,12.8,0000.0,0014.14,0004.55,0003.85
2022-10-26 23:34:00,,0818.4,5.02,0.00,28.0,26.3,00.0,36.9,29.9,12.7,0000.0,0015.16,0004.76,0003.98
2022-10-26 23:35:00,,0818.4,4.98,0.00,28.0,26.3,00.0,36.9,29.9,12.5,0000.0,0017.16,0004.93,0004.08
2022-10-26 23:36:00,,0818.4,5.02,0.00,28.0,26.3,00.0,36.9,29.9,12.4,0000.0,0018.54,0005.04,0004.17
2022-10-26 23:37:00,,0818.4,4.98,0.00,28.0,26.3,00.0,36.8,29.8,12.4,0000.0,0017.84,0005.08,0004.23
2022-10-26 23:38:00,,0818.4,5.01,0.00,28.0,26.3,00.0,36.8,29.8,12.4,0000.0,0018.08,0005.09,0004.26
2022-10-26 23:39:00,,0818.4,4.98,0.00,28.0,26.2,00.0,36.8,29.8,12.4,0000.0,0018.11,0005.11,0004.24
2022-10-26 23:40:00,,0818.4,5.02,0.00,28.0,26.3,00.0,36.8,29.8,12.4,0000.0,0017.43,0005.10,0004.22
2022-10-26 23:41:00,,0818.4,4.99,0.00,28.0,26.3,00.0,36.8,29.8,12.4,0000.0,0016.41,0005.06,0004.20
2022-10-26 23:42:00,,0818.4,4.99,0.00,28.0,26.4,00.0,36.8,29.8,12.5,0000.0,0015.41,0005.06,0004.18
2022-10-26 23:43:00,,0818.4,5.02,0.00,28.0,26.4,00.0,36.8,29.8,12.5,0000.0,0014.89,0005.09,0004.17
2022-10-26 23:44:00,,0818.4,5.00,0.00,28.0,26.4,00.0,36.8,29.8,12.4,0000.0,0015.13,0005.06,0004.17
2022-10-26 23:45:00,,0818.4,4.99,0.00,28.0,26.4,00.0,36.8,29.8,12.4,0000.0,0014.33,0005.01,0004.16
2022-10-26 23:46:00,,0818.4,5.01,0.00,28.0,26.4,00.0,36.8,29.8,12.5,0000.0,0012.52,0004.97,0004.15
2022-10-26 23:47:00,,0818.4,4.99,0.00,27.9,26.4,00.0,36.8,29.8,12.5,0000.0,0011.58,0004.97,0004.13
2022-10-26 23:48:00,,0818.4,5.01,0.00,27.9,26.4,00.0,36.8,29.8,12.5,0000.0,0012.63,0004.97,0004.11
2022-10-26 23:49:00,,0818.4,4.99,0.00,28.0,26.4,00.0,36.8,29.8,12.5,0000.0,0012.07,0004.96,0004.09
2022-10-26 23:50:00,,0818.4,4.99,0.00,28.0,26.4,00.0,36.8,29.8,12.4,0000.0,0012.15,0004.95,0004.08
2022-10-26 23:51:00,,0818.4,5.01,0.00,28.0,26.4,00.0,36.8,29.8,12.4,0000.0,0012.35,0004.94,0004.08
2022-10-26 23:52:00,,0818.4,4.99,0.00,28.0,26.4,00.0,36.8,29.8,12.3,0000.0,0012.53,0004.98,0004.09
2022-10-26 23:53:00,,0818.4,5.02,0.00,28.0,26.4,00.0,36.8,29.8,12.4,0000.0,0012.77,0004.99,0004.10
2022-10-26 23:54:00,,0818.4,4.99,0.00,27.9,26.4,00.0,36.8,29.8,12.4,0000.0,0012.89,0005.02,0004.11
2022-10-26 23:55:00,,0818.4,5.02,0.00,27.9,26.4,00.0,36.8,29.8,12.4,0000.0,0012.48,0005.02,0004.11
2022-10-26 23:56:00,,0818.4,4.99,0.00,27.9,26.3,00.0,36.8,29.8,12.4,0000.0,0012.28,0005.02,0004.11
2022-10-26 23:57:00,,0818.5,5.01,0.00,28.0,26.4,00.0,36.8,29.8,12.4,0000.0,0012.27,0005.02,0004.11
2022-10-26 23:58:00,,0818.5,4.99,0.00,28.0,26.4,00.0,36.8,29.8,12.4,0000.0,0012.11,0005.06,0004.12
2022-10-26 23:59:00,,0818.4,4.99,0.00,28.0,26.5,00.0,36.8,29.8,12.4,0000.0,0011.70,0005.13,0004.14
